Flag for Liberia Weather past 2 weeks in Kakata, Liberia

Now
77 °F

Fog.


Feels Like: 78 °F
Forecast: 73 / 87 °F
Wind: 3 mph from Northeast

Location: Roberts Field

Current Time: May 30, 2015 at 7:06:31 AM

Latest Report: May 30, 2015 at 6:30 AM


Visibility: 2 mi

Pressure: 29.89 "Hg

Humidity: 94%

Dew point: 75 °F

Location of KakataLocation

Historic Weather in Kakata — Graph

°F

Kakata temperature yesterday

Maximum temperature yesterday: 88 °F (at 2:00 PM)
Minimum temperature yesterday: 73 °F (at 3:30 AM)
Average temperature yesterday: 80 °F

Past Weeks' High & Low Weather Summary

 TemperatureHumidityPressure
High93 °F (May 18, 1:30 PM)100% (May 24, 6:30 AM)29.98 "Hg (May 24, 6:30 AM)
Low72 °F (May 15, 6:00 AM)56% (May 18, 1:30 PM)29.80 "Hg (May 15, 3:30 PM)
Average81 °F85%29.90 "Hg
* Reported May 15 6:00 AM — May 30 6:00 AM, Kakata, Weather by CustomWeather, © 2015

Note: Actual official high and low records may vary slightly from our data, if they occured in-between our weather recording intervals... More about our weather records

Advertising

Kakata weather history for previous 24 hours

 ConditionsComfort  
Time TempWeatherWind HumidityBarometerVisibility
6:00 AM
Sat, May 30
77 °FPassing clouds.3 mph94%29.86 "Hg4 mi
5:30 AM77 °FPassing clouds.5 mph94%29.86 "Hg4 mi
5:00 AM77 °FPassing clouds.6 mph94%29.86 "HgN/A
1:30 AM79 °FPassing clouds.No wind94%29.89 "HgN/A
1:00 AM79 °FPassing clouds.No wind94%29.92 "HgN/A
12:00 AM79 °FPartly cloudy.No wind94%29.92 "HgN/A
11:30 PM
Fri, May 29
79 °FPartly cloudy.No wind94%29.92 "HgN/A
11:00 PM79 °FPartly cloudy.No wind94%29.89 "HgN/A
10:30 PM79 °FPartly cloudy.No wind94%29.89 "HgN/A
10:00 PM79 °FPartly cloudy.No wind94%29.89 "HgN/A
9:30 PM81 °FPartly cloudy.No wind89%29.89 "HgN/A
8:30 PM81 °FRain. Passing clouds.No wind89%29.89 "HgN/A
8:00 PM79 °FLight rain. Passing clouds.No wind89%29.86 "Hg6 mi
7:30 PM79 °FLight rain. Partly sunny.No wind89%29.86 "Hg5 mi
7:00 PM79 °FPartly sunny.No wind89%29.86 "HgN/A
6:30 PM81 °FPartly sunny.No wind89%29.86 "HgN/A
5:00 PM84 °FPartly sunny.9 mph79%29.83 "HgN/A
4:30 PM86 °FScattered clouds.12 mph75%29.83 "HgN/A
4:00 PM86 °FScattered clouds.12 mph75%29.83 "HgN/A
3:30 PM86 °FScattered clouds.8 mph75%29.86 "HgN/A
3:00 PM88 °FScattered clouds.9 mph66%29.86 "HgN/A
2:30 PM88 °FScattered clouds.9 mph66%29.86 "HgN/A
2:00 PM88 °FScattered clouds.10 mph66%29.86 "HgN/A
1:30 PM86 °FPartly sunny.12 mph75%29.86 "HgN/A
1:00 PM86 °FScattered clouds.10 mph79%29.86 "HgN/A
12:30 PM86 °FScattered clouds.12 mph79%29.86 "HgN/A
12:00 PM86 °FScattered clouds.9 mph75%29.89 "HgN/A
11:30 AM84 °FScattered clouds.5 mph74%29.89 "HgN/A
11:00 AM84 °FScattered clouds.No wind74%29.89 "HgN/A
10:30 AM82 °FBroken clouds.No wind84%29.92 "HgN/A
10:00 AM81 °FBroken clouds.No wind84%29.92 "HgN/A
9:30 AM81 °FBroken clouds.No wind84%29.92 "HgN/A
9:00 AM79 °FPartly sunny.No wind84%29.92 "HgN/A
8:30 AM77 °FPartly sunny.No wind94%29.92 "HgN/A
8:00 AM77 °FPassing clouds.No wind94%29.92 "HgN/A
7:30 AM75 °FScattered clouds.No wind94%29.89 "HgN/A
7:00 AM75 °FPassing clouds.No wind94%29.89 "HgN/A
Weather by CustomWeather, © 2015

See weather overviewHow to use our weather pages